Weather History for Poughkeepsie, NY

Change the Weather History Date:

Sunday, December 23, 2012

  Actual Average Record
Temperature  
Mean Temperature 34 °F 29 °F  
Max Temperature 42 °F 38 °F 66 °F (1990)
Min Temperature 25 °F 20 °F -12 °F (1989)
Degree Days  
Heating Degree Days 31 36  
Month to date heating degree days 608 749  
Since 1 July heating degree days 1754 2027  
Cooling Degree Days 0 0  
Month to date cooling degree days 0 0  
Year to date cooling degree days 895 672  
Moisture  
Dew Point 20 °F    
Average Humidity 59    
Maximum Humidity 75    
Minimum Humidity 43    
Precipitation  
Precipitation 0.00 in 0.11 in 1.04 in (2004)
Month to date precipitation 2.96 2.68  
Year to date precipitation 35.22 45.68  
Sea Level Pressure  
Sea Level Pressure 29.86 in    
Wind  
Wind Speed 8 mph (WSW)    
Max Wind Speed 17 mph    
Max Gust Speed 25 mph    
Visibility 10 miles    
Events      
T = Trace of Precipitation, MM = Missing Value Source: NWS Daily Summary

Daily Weather History Graph

Daily Weather History Graph

Search for Another Location

Airport:

Trip Planner

Search our weather history database for the weather conditions in past years. The results will help you decide how hot, cold, wet, or windy it might be!

Date:

Astronomy

Dec. 23, 2012 Rise Set
Actual Time 7:20 AM EST 4:29 PM EST
Civil Twilight 6:48 AM EST 5:01 PM EST
Nautical Twilight 6:13 AM EST 5:36 PM EST
Astronomical Twilight 5:39 AM EST 6:10 PM EST
Moon 1:20 PM EST 2:58 AM EST
Length of Visible Light 10h 12m
Length of Day
9h 09m
Waxing Gibbous, 81% of the Moon is Illuminated
Dec 23
Waxing Gibbous
Dec 28
Full
Jan 4
Last Quarter
Jan 11
New
Jan 18
First Quarter

Hourly Weather History & Observations

Time (EST) Temp. Windchill Dew Point Humidity Pressure Visibility Wind Dir Wind Speed Gust Speed Precip Events Conditions
12:53 AM 36.0 °F 29.0 °F 19.0 °F 50% 29.78 in 10.0 mi West 9.2 mph - N/A   Overcast
1:53 AM 36.0 °F 28.5 °F 19.9 °F 52% 29.81 in 10.0 mi West 10.4 mph 19.6 mph N/A   Overcast
2:53 AM 36.0 °F 26.0 °F 19.0 °F 50% 29.82 in 10.0 mi West 17.3 mph 24.2 mph N/A   Clear
3:53 AM 35.1 °F 26.9 °F 19.0 °F 52% 29.83 in 10.0 mi West 11.5 mph - N/A   Clear
4:53 AM 35.1 °F 31.0 °F 19.9 °F 54% 29.84 in 10.0 mi SW 4.6 mph - N/A   Overcast
5:53 AM 35.1 °F 29.3 °F 21.0 °F 57% 29.86 in 10.0 mi SW 6.9 mph - N/A   Overcast
6:53 AM 35.1 °F 30.1 °F 21.0 °F 57% 29.87 in 10.0 mi WSW 5.8 mph - N/A   Overcast
7:53 AM 36.0 °F 28.0 °F 21.0 °F 55% 29.88 in 10.0 mi SW 11.5 mph - N/A   Overcast
8:53 AM 36.0 °F 28.0 °F 21.0 °F 55% 29.89 in 10.0 mi WSW 11.5 mph - N/A   Mostly Cloudy
9:53 AM 37.9 °F 29.6 °F 21.0 °F 51% 29.90 in 10.0 mi WSW 13.8 mph - N/A   Scattered Clouds
10:53 AM 37.9 °F 30.5 °F 21.0 °F 51% 29.89 in 10.0 mi WSW 11.5 mph - N/A   Mostly Cloudy
11:53 AM 39.0 °F 32.8 °F 21.9 °F 50% 29.86 in 10.0 mi West 9.2 mph - N/A   Overcast
12:53 PM 39.9 °F 33.4 °F 21.9 °F 49% 29.83 in 10.0 mi SW 10.4 mph - N/A   Overcast
1:53 PM 39.9 °F 33.4 °F 21.9 °F 49% 29.81 in 10.0 mi WSW 10.4 mph - N/A   Clear
2:53 PM 42.1 °F 36.6 °F 21.0 °F 43% 29.80 in 10.0 mi SW 9.2 mph - N/A   Clear
3:53 PM 41.0 °F 39.0 °F 21.0 °F 45% 29.80 in 10.0 mi SSW 3.5 mph - N/A   Clear
4:53 PM 39.0 °F 32.8 °F 19.0 °F 45% 29.83 in 10.0 mi SW 9.2 mph 16.1 mph N/A   Clear
5:53 PM 37.0 °F 33.3 °F 19.0 °F 48% 29.85 in 10.0 mi SSW 4.6 mph - N/A   Clear
6:53 PM 34.0 °F - 19.0 °F 54% 29.87 in 10.0 mi Calm Calm - N/A   Clear
7:53 PM 28.9 °F - 19.9 °F 69% 29.88 in 10.0 mi Calm Calm - N/A   Clear
8:53 PM 27.0 °F - 19.0 °F 72% 29.90 in 10.0 mi Calm Calm - N/A   Clear
9:53 PM 27.0 °F - 19.9 °F 75% 29.91 in 10.0 mi Calm Calm - N/A   Clear
10:53 PM 26.1 °F 18.4 °F 19.9 °F 78% 29.91 in 10.0 mi SW 6.9 mph - N/A   Scattered Clouds
11:53 PM 30.9 °F 25.2 °F 19.0 °F 61% 29.92 in 10.0 mi WSW 5.8 mph - N/A   Clear